Flag for U.S.A. Weather past 2 weeks in Chula Vista, California, U.S.A.

Now
56 °F

Passing clouds.


Feels Like: 56 °F
Forecast: 52 / 70 °F
Wind: No wind

Location: Brown Field Municipal Airport

Current Time: Apr 19, 2015 at 8:49:48 AM

Latest Report: Apr 19, 2015 at 7:53 AM


Visibility: 9 mi

Pressure: 29.96 "Hg

Humidity: 93%

Dew point: 54 °F

Location of Chula VistaLocation

Historic Weather in Chula Vista — Graph

°F

Chula Vista temperature yesterday

Maximum temperature yesterday: 77 °F (at 11:53 AM)
Minimum temperature yesterday: 50 °F (at 5:53 AM)
Average temperature yesterday: 65 °F

Past Weeks' High & Low Weather Summary

 TemperatureHumidityPressure
High79 °F (Apr 4, 11:53 AM)100% (Apr 19, 5:53 AM)30.09 "Hg (Apr 19, 5:53 AM)
Low46 °F (Apr 9, 5:53 AM)4% (Apr 16, 11:53 AM)29.87 "Hg (Apr 5, 3:53 PM)
Average62 °F59%29.97 "Hg
* Reported Apr 4 7:53 AM — Apr 19 7:53 AM, Chula Vista, Weather by CustomWeather, © 2015

Note: Actual official high and low records may vary slightly from our data, if they occured in-between our weather recording intervals... More about our weather records

Advertising

Chula Vista weather history for previous 24 hours

 ConditionsComfort  
Time TempWeatherWind HumidityBarometerVisibility
7:53 AM
Sun, Apr 19
56 °FPassing clouds.No wind93%29.96 "Hg9 mi
6:53 AM54 °FFog.No wind100%29.95 "Hg0 mi
5:53 AM54 °FFog.No wind100%29.93 "Hg1 mi
4:53 AM54 °FFog.No wind97%29.93 "Hg1 mi
3:53 AM55 °FLow clouds.No wind87%29.93 "Hg10 mi
3:04 AM53 °FPassing clouds.No wind86%29.95 "Hg10 mi
2:53 AM53 °FPassing clouds.3 mph86%29.94 "Hg10 mi
2:01 AM54 °FFog.No wind97%29.96 "Hg1 mi
12:53 AM57 °FClear.No wind93%29.96 "Hg8 mi
11:53 PM
Sat, Apr 18
57 °FClear.No wind90%29.96 "Hg10 mi
10:53 PM60 °FClear.No wind78%29.97 "Hg10 mi
9:53 PM61 °FClear.No wind72%29.97 "Hg10 mi
8:53 PM62 °FClear.5 mph65%29.96 "Hg10 mi
7:53 PM64 °FSunny.6 mph65%29.94 "Hg10 mi
6:53 PM67 °FSunny.8 mph55%29.94 "Hg10 mi
5:53 PM70 °FSunny.7 mph39%29.94 "Hg10 mi
4:53 PM74 °FSunny.9 mph25%29.94 "Hg10 mi
3:53 PM76 °FSunny.8 mph23%29.94 "Hg10 mi
2:53 PM77 °FSunny.8 mph26%29.95 "Hg10 mi
1:53 PM76 °FSunny.9 mph19%29.97 "Hg10 mi
12:53 PM76 °FSunny.10 mph27%29.98 "Hg10 mi
11:53 AM77 °FSunny.10 mph20%30.00 "Hg10 mi
10:53 AM75 °FSunny.9 mph20%30.01 "Hg10 mi
9:53 AM72 °FSunny.5 mph19%30.02 "Hg10 mi
8:53 AM67 °FSunny.5 mph24%30.01 "Hg10 mi
Weather by CustomWeather, © 2015

See weather overviewHow to use our weather pages